Temp
-17 -17 -17 -17 -16 -16 -15 -15 -14 -14 -13 -13 -12 -12 -11 -11 -11 -11 -10 -10 -9 -8 -8 -8 -8 -9 -8 -8 -8 -7 -7 -7 -8 -8 -7 -8 -8 -8 -8 -7 -7 -8 -9 -8 -8 -8 -9 -9 -9 -9 -9 -8 -8 -8 -8 -8 -8 -7 -7 -7 -6 -6 -6 -5 -5 -5 -5 -5 -5 -4 -4 -4 -4 -4
-18 -18 -18 -18 -17 -17 -16 -16 -15 -15 -14 -14 -13 -12 -12 -12 -11 -11 -11 -11 -10 -9 -8 -8 -8 -9 -9 -9 -9 -8 -7 -7 -8 -8 -8 -8 -8 -8 -8 -7 -8 -8 -9 -9 -9 -9 -9 -9 -9 -9 -9 -9 -9 -9 -8 -8 -8 -8 -7 -7 -7 -6 -6 -6 -6 -6 -5 -5 -5 -5 -5 -4 -4 -4
-19 -19 -18 -18 -18 -18 -17 -17 -16 -16 -15 -15 -14 -13 -13 -12 -12 -12 -11 -11 -11 -10 -9 -9 -9 -9 -9 -10 -10 -9 -8 -8 -8 -8 -8 -9 -9 -9 -9 -8 -8 -9 -9 -10 -10 -10 -10 -10 -10 -10 -10 -10 -9 -9 -9 -9 -8 -8 -8 -7 -7 -7 -6 -6 -6 -6 -6 -6 -5 -5 -5 -5 -5 -5
-21 -20 -20 -19 -19 -19 -18 -18 -17 -17 -16 -16 -15 -14 -14 -13 -13 -12 -12 -12 -12 -11 -10 -10 -10 -9 -9 -10 -10 -10 -9 -9 -8 -8 -8 -9 -9 -9 -9 -8 -8 -9 -10 -10 -10 -10 -10 -10 -10 -10 -10 -10 -10 -10 -9 -9 -9 -8 -8 -7 -7 -7 -7 -7 -6 -6 -6 -6 -6 -6 -5 -5 -5 -5
-22 -22 -21 -21 -20 -20 -20 -19 -19 -18 -18 -17 -16 -15 -15 -14 -13 -13 -13 -12 -12 -12 -11 -11 -10 -10 -10 -10 -10 -10 -10 -10 -9 -9 -8 -9 -9 -10 -9 -9 -9 -9 -9 -10 -10 -11 -11 -11 -11 -11 -11 -11 -10 -10 -9 -9 -9 -8 -8 -8 -8 -8 -8 -7 -7 -7 -7 -6 -6 -6 -6 -6 -5 -5
-23 -23 -22 -21 -21 -21 -21 -20 -19 -19 -18 -18 -17 -17 -16 -15 -14 -13 -13 -13 -13 -12 -12 -12 -11 -11 -11 -10 -10 -11 -11 -10 -10 -10 -9 -9 -10 -10 -10 -10 -10 -10 -9 -10 -10 -10 -11 -11 -11 -11 -11 -11 -10 -10 -9 -9 -9 -8 -9 -9 -9 -8 -8 -8 -7 -7 -7 -7 -7 -6 -6 -6 -6 -6
-24 -24 -23 -22 -22 -22 -22 -22 -21 -20 -20 -19 -19 -18 -17 -16 -15 -14 -14 -13 -13 -13 -13 -12 -12 -11 -11 -11 -10 -11 -11 -10 -10 -11 -11 -11 -11 -11 -10 -10 -11 -11 -10 -10 -10 -11 -11 -11 -11 -11 -11 -11 -11 -10 -9 -9 -8 -8 -9 -9 -9 -9 -9 -8 -7 -7 -7 -7 -7 -6 -6 -6 -6 -6
-25 -25 -24 -23 -23 -23 -23 -23 -22 -22 -21 -20 -19 -18 -17 -17 -16 -15 -15 -14 -13 -13 -13 -13 -12 -12 -11 -11 -11 -11 -11 -11 -11 -11 -11 -12 -12 -12 -11 -11 -11 -11 -11 -11 -11 -11 -12 -12 -12 -12 -12 -12 -11 -11 -10 -9 -8 -8 -8 -8 -8 -8 -8 -7 -7 -6 -6 -6 -6 -6 -5 -5 -6 -6
-25 -25 -24 -24 -23 -24 -24 -23 -23 -22 -22 -21 -20 -19 -18 -17 -16 -16 -15 -14 -14 -13 -13 -13 -13 -12 -12 -12 -12 -11 -11 -11 -11 -11 -11 -12 -12 -12 -12 -12 -11 -11 -12 -12 -12 -12 -12 -12 -12 -12 -12 -12 -12 -11 -10 -9 -9 -8 -8 -8 -8 -7 -7 -7 -6 -6 -5 -5 -5 -5 -4 -4 -5 -5
-25 -25 -25 -24 -24 -25 -25 -24 -23 -23 -22 -22 -21 -20 -19 -18 -17 -16 -15 -15 -14 -14 -14 -13 -13 -13 -13 -12 -12 -12 -12 -12 -12 -12 -12 -12 -12 -12 -12 -13 -13 -12 -11 -12 -12 -12 -12 -12 -12 -13 -13 -13 -12 -11 -10 -9 -9 -8 -8 -8 -8 -8 -7 -7 -6 -6 -6 -5 -5 -5 -4 -4 -4 -4
-25 -25 -25 -25 -25 -25 -25 -25 -24 -24 -23 -23 -23 -22 -20 -19 -18 -17 -16 -15 -15 -14 -14 -14 -13 -13 -13 -13 -13 -12 -12 -12 -12 -12 -12 -12 -12 -12 -12 -13 -13 -12 -12 -12 -11 -11 -12 -12 -12 -13 -13 -12 -12 -11 -10 -9 -9 -9 -9 -9 -8 -8 -8 -7 -7 -6 -6 -6 -5 -5 -5 -5 -5 -5
-25 -25 -25 -25 -25 -25 -25 -25 -24 -24 -24 -24 -23 -23 -22 -21 -20 -19 -18 -16 -15 -15 -14 -14 -14 -14 -13 -13 -13 -13 -13 -13 -13 -12 -12 -12 -12 -12 -13 -13 -13 -13 -13 -13 -12 -12 -12 -12 -12 -12 -12 -12 -11 -11 -10 -10 -9 -9 -9 -9 -8 -8 -8 -7 -7 -7 -6 -6 -6 -6 -5 -5 -5 -5
-25 -25 -25 -24 -24 -24 -24 -24 -24 -24 -24 -24 -24 -23 -23 -22 -22 -20 -19 -18 -16 -15 -15 -14 -14 -14 -14 -14 -13 -13 -13 -13 -13 -13 -12 -12 -12 -12 -13 -13 -13 -14 -14 -13 -13 -13 -13 -12 -12 -12 -12 -12 -11 -11 -10 -10 -9 -9 -9 -9 -8 -8 -8 -8 -7 -7 -7 -6 -6 -6 -6 -6 -6 -6
-24 -23 -23 -23 -23 -23 -24 -24 -24 -24 -24 -24 -24 -23 -23 -23 -23 -22 -21 -19 -18 -16 -15 -15 -14 -14 -14 -14 -14 -14 -13 -13 -14 -13 -12 -12 -13 -13 -13 -13 -14 -14 -14 -14 -14 -14 -13 -13 -12 -12 -12 -12 -11 -11 -10 -10 -9 -9 -9 -9 -9 -8 -8 -8 -7 -7 -7 -7 -6 -6 -6 -6 -6 -6
-23 -23 -23 -23 -23 -23 -23 -23 -23 -23 -23 -23 -23 -23 -23 -23 -23 -22 -21 -20 -19 -17 -16 -15 -15 -14 -14 -14 -14 -14 -14 -14 -14 -12 -11 -13 -13 -14 -14 -14 -14 -14 -14 -14 -14 -13 -13 -14 -13 -13 -12 -12 -12 -11 -10 -10 -9 -9 -9 -9 -8 -8 -8 -8 -8 -7 -7 -7 -7 -7 -7 -7 -7 -7
-22 -22 -22 -22 -22 -22 -22 -22 -22 -23 -23 -23 -23 -23 -23 -23 -22 -22 -21 -21 -20 -18 -17 -16 -15 -15 -14 -14 -14 -14 -14 -14 -13 -12 -11 -13 -14 -14 -14 -14 -14 -14 -14 -14 -14 -14 -14 -14 -14 -14 -13 -12 -12 -11 -11 -10 -10 -9 -9 -9 -9 -8 -8 -8 -8 -8 -8 -8 -8 -8 -8 -8 -8 -9
-22 -22 -22 -22 -22 -22 -22 -22 -22 -23 -23 -23 -23 -23 -23 -23 -23 -22 -21 -21 -20 -19 -18 -17 -16 -15 -15 -15 -15 -15 -14 -14 -13 -12 -12 -13 -14 -14 -14 -14 -14 -14 -14 -14 -14 -15 -15 -15 -15 -14 -13 -12 -12 -11 -11 -10 -10 -10 -10 -9 -9 -9 -9 -9 -9 -9 -9 -9 -9 -9 -9 -9 -9 -9
-21 -21 -21 -21 -21 -21 -22 -22 -22 -22 -23 -23 -24 -23 -23 -23 -23 -22 -21 -21 -20 -19 -18 -17 -16 -15 -15 -15 -15 -14 -14 -14 -13 -12 -12 -13 -13 -14 -14 -14 -14 -14 -15 -15 -15 -16 -15 -14 -15 -15 -14 -13 -12 -12 -11 -11 -11 -10 -10 -10 -10 -10 -10 -10 -10 -10 -10 -10 -10 -10 -10 -9 -9 -9
-21 -21 -21 -21 -21 -22 -22 -22 -22 -22 -22 -23 -23 -23 -23 -23 -22 -22 -21 -20 -20 -19 -18 -17 -17 -16 -15 -15 -15 -14 -14 -14 -13 -13 -13 -13 -13 -14 -14 -14 -15 -15 -15 -16 -16 -16 -15 -14 -15 -15 -14 -13 -13 -13 -12 -11 -11 -11 -11 -11 -11 -11 -11 -11 -11 -10 -10 -10 -10 -10 -9 -9 -9 -9
-20 -20 -21 -21 -21 -22 -22 -22 -22 -22 -22 -23 -23 -23 -23 -23 -22 -22 -21 -20 -19 -18 -17 -17 -16 -16 -15 -15 -15 -15 -14 -14 -14 -13 -14 -14 -15 -15 -15 -15 -16 -15 -15 -15 -16 -16 -15 -14 -15 -15 -14 -13 -14 -13 -12 -12 -12 -12 -12 -12 -12 -12 -11 -11 -11 -10 -10 -10 -10 -10 -9 -9 -9 -9
-20 -20 -20 -20 -21 -21 -21 -21 -21 -21 -21 -22 -23 -23 -23 -22 -22 -21 -21 -20 -19 -17 -17 -16 -16 -15 -15 -15 -14 -15 -15 -15 -14 -14 -15 -15 -15 -16 -16 -16 -16 -15 -15 -15 -15 -16 -15 -15 -15 -15 -14 -14 -13 -13 -13 -13 -12 -12 -12 -12 -12 -11 -11 -11 -11 -10 -10 -10 -9 -9 -9 -9 -9 -9
-21 -21 -20 -20 -20 -21 -21 -21 -21 -21 -21 -21 -22 -22 -22 -22 -21 -21 -20 -19 -18 -17 -16 -15 -15 -15 -15 -15 -15 -15 -15 -15 -14 -15 -15 -16 -15 -16 -16 -16 -16 -16 -16 -15 -14 -15 -15 -15 -15 -15 -14 -14 -13 -13 -13 -12 -12 -12 -12 -12 -11 -11 -11 -11 -11 -10 -10 -10 -9 -9 -9 -9 -9 -9
-20 -20 -20 -20 -20 -20 -20 -20 -20 -20 -20 -21 -21 -22 -22 -21 -21 -20 -20 -19 -18 -16 -15 -15 -15 -15 -15 -15 -15 -16 -16 -15 -15 -15 -15 -16 -16 -16 -16 -16 -16 -17 -16 -15 -14 -15 -15 -15 -15 -15 -14 -13 -13 -13 -13 -12 -12 -12 -11 -11 -11 -10 -10 -10 -10 -10 -10 -10 -10 -10 -9 -9 -9 -9
-20 -20 -20 -19 -19 -19 -19 -19 -20 -20 -20 -20 -21 -21 -21 -21 -20 -20 -19 -18 -17 -16 -15 -15 -15 -15 -15 -16 -16 -16 -16 -16 -16 -16 -16 -16 -16 -16 -16 -16 -16 -16 -16 -14 -14 -15 -15 -15 -16 -15 -14 -13 -12 -12 -12 -12 -11 -11 -11 -11 -11 -10 -10 -10 -10 -10 -10 -10 -10 -10 -10 -10 -10 -9
-19 -20 -20 -19 -19 -19 -19 -19 -19 -20 -20 -20 -20 -20 -20 -20 -19 -19 -18 -17 -17 -16 -16 -15 -15 -15 -15 -16 -16 -16 -16 -16 -16 -16 -16 -17 -16 -16 -16 -16 -16 -16 -16 -15 -15 -15 -15 -15 -15 -15 -14 -13 -13 -12 -12 -12 -11 -11 -11 -11 -10 -10 -10 -10 -10 -10 -10 -10 -10 -10 -10 -10 -10 -10
-19 -19 -20 -20 -19 -19 -19 -19 -19 -20 -20 -20 -20 -20 -19 -19 -18 -18 -17 -17 -17 -16 -16 -16 -15 -15 -16 -16 -16 -16 -16 -16 -16 -16 -16 -17 -17 -16 -16 -16 -16 -16 -16 -15 -15 -15 -15 -16 -15 -15 -14 -14 -13 -12 -12 -12 -11 -11 -11 -11 -10 -10 -10 -10 -10 -10 -10 -10 -10 -10 -10 -10 -9 -9
-20 -20 -20 -20 -19 -19 -19 -19 -19 -19 -19 -19 -19 -18 -18 -17 -17 -17 -17 -17 -17 -17 -16 -16 -16 -15 -15 -16 -16 -16 -16 -16 -16 -16 -16 -17 -17 -17 -16 -16 -16 -16 -16 -15 -15 -15 -16 -16 -15 -15 -14 -14 -13 -12 -12 -12 -12 -11 -11 -11 -10 -10 -10 -10 -10 -10 -10 -11 -10 -10 -9 -9 -9 -9
-20 -20 -20 -20 -20 -19 -19 -19 -19 -19 -18 -18 -18 -18 -17 -17 -17 -17 -17 -17 -17 -17 -17 -16 -16 -16 -16 -16 -16 -16 -16 -16 -16 -16 -16 -17 -17 -17 -16 -16 -16 -16 -16 -16 -16 -16 -16 -16 -15 -15 -14 -13 -13 -12 -12 -12 -11 -11 -11 -11 -10 -10 -10 -10 -10 -10 -10 -10 -10 -9 -9 -9 -9 -8
-20 -20 -19 -19 -19 -19 -19 -18 -18 -18 -18 -18 -17 -17 -17 -17 -16 -16 -16 -16 -17 -17 -17 -17 -16 -16 -16 -16 -16 -16 -16 -16 -16 -16 -16 -17 -17 -17 -17 -17 -16 -16 -16 -16 -16 -16 -16 -15 -15 -15 -14 -14 -13 -13 -12 -12 -11 -11 -11 -11 -10 -10 -10 -10 -10 -10 -10 -10 -9 -9 -9 -9 -8 -8
-20 -20 -19 -19 -19 -19 -19 -18 -18 -18 -18 -17 -17 -16 -16 -16 -16 -16 -16 -16 -17 -17 -17 -16 -16 -16 -16 -16 -16 -16 -16 -16 -16 -16 -16 -16 -16 -17 -17 -17 -16 -16 -16 -16 -16 -17 -16 -16 -15 -15 -14 -14 -13 -13 -12 -12 -11 -11 -11 -11 -10 -10 -10 -10 -10 -10 -10 -10 -9 -9 -9 -9 -9 -9
-20 -20 -19 -19 -19 -19 -18 -18 -18 -18 -17 -17 -16 -16 -15 -15 -16 -16 -16 -16 -16 -16 -16 -16 -16 -17 -17 -17 -17 -17 -16 -16 -16 -16 -16 -16 -16 -17 -17 -17 -16 -16 -16 -16 -16 -16 -16 -16 -15 -15 -14 -14 -13 -13 -12 -12 -11 -11 -11 -11 -11 -11 -11 -11 -11 -10 -10 -10 -10 -10 -9 -9 -9 -9
-20 -20 -19 -19 -19 -18 -18 -18 -18 -17 -17 -17 -16 -16 -15 -15 -16 -16 -16 -16 -16 -16 -16 -16 -17 -17 -17 -17 -17 -17 -17 -16 -16 -16 -16 -16 -17 -17 -17 -17 -17 -17 -16 -16 -16 -16 -16 -16 -15 -15 -14 -14 -14 -13 -12 -12 -11 -12 -12 -12 -11 -11 -11 -11 -11 -11 -11 -11 -11 -10 -10 -10 -9 -9
-20 -19 -19 -19 -18 -18 -18 -18 -17 -17 -17 -17 -16 -16 -16 -16 -16 -16 -16 -16 -16 -16 -16 -17 -17 -17 -17 -18 -18 -17 -17 -17 -16 -16 -16 -17 -17 -17 -17 -17 -17 -17 -16 -16 -16 -16 -16 -16 -15 -15 -14 -14 -14 -13 -13 -12 -12 -12 -12 -12 -11 -11 -11 -12 -11 -11 -11 -11 -11 -11 -10 -10 -10 -9
-20 -19 -19 -19 -18 -18 -18 -18 -17 -17 -17 -17 -17 -16 -16 -16 -16 -16 -16 -16 -16 -16 -16 -16 -16 -17 -18 -18 -18 -18 -17 -17 -16 -16 -16 -17 -17 -17 -17 -17 -16 -16 -16 -16 -16 -16 -16 -15 -15 -15 -14 -14 -14 -13 -13 -12 -12 -12 -12 -12 -12 -11 -11 -12 -12 -11 -11 -11 -11 -11 -11 -10 -10 -10
-20 -19 -19 -19 -19 -18 -18 -18 -18 -17 -17 -17 -17 -16 -16 -16 -16 -16 -16 -16 -16 -16 -16 -16 -17 -17 -18 -18 -18 -18 -17 -17 -17 -16 -16 -17 -17 -17 -17 -17 -16 -16 -16 -16 -16 -16 -15 -15 -15 -15 -14 -14 -13 -13 -12 -12 -12 -12 -12 -13 -13 -12 -12 -12 -11 -11 -11 -11 -11 -11 -11 -11 -10 -10
-20 -20 -20 -19 -19 -19 -18 -18 -18 -18 -17 -17 -17 -16 -16 -16 -16 -16 -16 -16 -16 -16 -16 -16 -17 -18 -18 -18 -18 -18 -17 -17 -17 -16 -16 -16 -17 -17 -17 -17 -16 -16 -16 -16 -16 -16 -16 -15 -15 -15 -15 -14 -14 -13 -13 -12 -12 -12 -13 -13 -13 -12 -12 -12 -11 -11 -11 -11 -11 -11 -11 -11 -11 -11
-21 -21 -21 -20 -20 -19 -19 -18 -18 -18 -17 -17 -17 -17 -16 -16 -16 -16 -16 -16 -16 -16 -16 -17 -17 -18 -18 -18 -18 -17 -17 -17 -17 -16 -16 -16 -16 -16 -17 -16 -16 -16 -16 -16 -16 -16 -16 -15 -15 -15 -15 -14 -14 -13 -12 -12 -12 -12 -13 -13 -13 -12 -12 -12 -11 -12 -12 -12 -12 -12 -11 -11 -11 -11
-22 -22 -22 -21 -20 -20 -19 -19 -19 -18 -18 -17 -17 -17 -17 -17 -16 -16 -16 -16 -16 -16 -16 -17 -17 -18 -18 -18 -18 -18 -17 -17 -17 -17 -17 -16 -16 -16 -16 -16 -16 -16 -16 -16 -16 -16 -15 -15 -15 -15 -15 -14 -13 -12 -12 -12 -12 -12 -13 -13 -13 -13 -12 -12 -12 -12 -12 -12 -12 -12 -12 -12 -12 -11
-23 -23 -23 -22 -21 -21 -20 -20 -19 -19 -18 -18 -18 -17 -17 -17 -17 -16 -16 -16 -16 -16 -17 -17 -17 -17 -17 -17 -18 -17 -17 -17 -17 -17 -17 -16 -16 -16 -16 -16 -16 -16 -16 -16 -15 -15 -15 -15 -15 -14 -14 -13 -13 -12 -12 -12 -12 -12 -12 -12 -13 -13 -12 -12 -12 -12 -12 -12 -12 -12 -12 -12 -12 -12
-24 -24 -23 -22 -22 -21 -21 -20 -19 -19 -19 -18 -18 -18 -17 -17 -17 -17 -16 -16 -16 -16 -16 -17 -17 -17 -17 -17 -17 -17 -17 -17 -16 -16 -16 -16 -16 -16 -16 -16 -16 -15 -15 -15 -15 -15 -15 -15 -15 -14 -13 -13 -13 -13 -12 -12 -12 -12 -12 -13 -13 -13 -13 -12 -12 -12 -12 -12 -11 -11 -11 -12 -12 -12
-24 -24 -23 -23 -22 -21 -21 -20 -19 -19 -19 -19 -18 -18 -18 -17 -17 -17 -16 -16 -16 -16 -16 -16 -16 -16 -16 -16 -16 -17 -16 -16 -16 -16 -16 -16 -16 -16 -16 -16 -15 -15 -15 -15 -15 -15 -15 -15 -14 -13 -13 -13 -13 -13 -12 -12 -12 -13 -13 -13 -13 -13 -13 -13 -13 -13 -12 -12 -11 -11 -11 -11 -12 -12
-25 -25 -24 -23 -23 -22 -21 -20 -20 -19 -19 -19 -18 -18 -18 -17 -17 -17 -16 -16 -16 -16 -16 -16 -16 -16 -16 -16 -16 -16 -16 -16 -16 -16 -16 -16 -16 -16 -15 -15 -15 -14 -15 -15 -15 -15 -15 -14 -13 -13 -14 -14 -13 -13 -13 -13 -13 -13 -13 -13 -13 -13 -13 -13 -13 -13 -12 -12 -12 -11 -11 -11 -11 -12
-26 -25 -25 -24 -23 -22 -22 -21 -20 -20 -19 -19 -19 -18 -18 -17 -17 -16 -16 -16 -16 -16 -16 -16 -16 -16 -16 -16 -16 -16 -15 -15 -15 -15 -15 -15 -15 -15 -15 -15 -14 -14 -14 -14 -14 -14 -15 -14 -14 -14 -14 -14 -13 -13 -13 -13 -13 -12 -13 -13 -13 -13 -13 -13 -13 -13 -12 -12 -12 -11 -11 -11 -11 -11
-27 -26 -26 -25 -24 -23 -23 -22 -21 -20 -19 -19 -19 -18 -17 -17 -17 -16 -16 -16 -15 -15 -16 -16 -16 -16 -16 -15 -15 -15 -15 -15 -15 -15 -15 -15 -15 -15 -15 -15 -14 -14 -14 -14 -14 -14 -14 -14 -14 -14 -14 -14 -13 -13 -13 -13 -13 -13 -13 -13 -13 -13 -13 -13 -13 -13 -13 -12 -12 -11 -11 -11 -11 -11
-27 -27 -26 -26 -25 -25 -24 -23 -22 -21 -20 -19 -19 -18 -18 -17 -17 -16 -16 -16 -16 -16 -16 -16 -15 -15 -15 -15 -15 -15 -15 -15 -15 -15 -15 -15 -15 -15 -14 -14 -14 -14 -14 -14 -14 -14 -14 -14 -14 -14 -14 -14 -13 -13 -13 -13 -13 -13 -13 -13 -13 -13 -13 -13 -13 -13 -13 -12 -12 -12 -11 -11 -11 -11
Height
1425 1424 1424 1424 1422 1422 1422 1421 1421 1420 1420 1419 1418 1417 1416 1414 1409 1406 1402 1400 1400 1403 1404 1403 1400 1399 1400 1400 1402 1404 1405 1405 1406 1406 1407 1407 1407 1407 1409 1411 1413 1415 1417 1419 1420 1421 1422 1423 1423 1424 1425 1425 1426 1427 1427 1428 1428 1429 1430 1431 1432 1433 1434 1434 1434 1434 1434 1434 1434 1434 1435 1436 1436 1437
1419 1417 1417 1416 1416 1415 1415 1415 1415 1415 1414 1413 1413 1411 1411 1409 1406 1402 1398 1394 1394 1398 1399 1399 1398 1396 1395 1395 1396 1398 1400 1401 1402 1402 1402 1402 1403 1403 1404 1406 1408 1410 1412 1414 1415 1416 1417 1418 1419 1419 1420 1420 1421 1422 1422 1423 1423 1424 1425 1426 1427 1428 1429 1429 1429 1429 1429 1429 1429 1430 1431 1432 1432 1432
1412 1411 1410 1409 1409 1408 1408 1408 1408 1408 1408 1407 1407 1406 1405 1404 1401 1399 1396 1389 1388 1393 1394 1394 1395 1394 1393 1392 1391 1392 1393 1395 1397 1398 1398 1398 1399 1400 1399 1401 1403 1404 1406 1408 1410 1411 1412 1413 1413 1414 1414 1414 1415 1416 1417 1417 1418 1419 1420 1421 1422 1423 1423 1424 1424 1424 1424 1424 1424 1425 1426 1427 1427 1428
1406 1404 1403 1402 1402 1401 1401 1400 1400 1401 1401 1401 1401 1400 1399 1398 1396 1395 1393 1386 1382 1386 1389 1388 1389 1390 1390 1390 1389 1387 1387 1389 1391 1393 1394 1394 1394 1395 1395 1396 1398 1398 1400 1402 1404 1405 1406 1407 1408 1408 1409 1409 1410 1410 1411 1411 1412 1413 1413 1415 1416 1417 1417 1418 1418 1419 1419 1419 1419 1420 1421 1422 1423 1423
1401 1399 1396 1395 1395 1394 1393 1392 1392 1392 1393 1394 1394 1394 1393 1392 1391 1390 1388 1383 1379 1379 1382 1383 1383 1385 1386 1386 1386 1384 1382 1383 1385 1387 1390 1390 1390 1390 1391 1392 1393 1393 1395 1396 1398 1399 1401 1402 1402 1403 1403 1403 1404 1404 1404 1405 1406 1407 1408 1409 1410 1410 1411 1411 1412 1413 1413 1414 1414 1415 1416 1417 1418 1418
1395 1392 1390 1388 1387 1388 1386 1385 1385 1385 1385 1386 1386 1387 1387 1386 1385 1385 1383 1380 1376 1374 1375 1377 1377 1379 1381 1381 1382 1381 1378 1379 1381 1381 1383 1386 1386 1386 1387 1388 1388 1389 1390 1392 1393 1394 1395 1396 1396 1397 1398 1397 1398 1398 1399 1400 1400 1401 1402 1403 1404 1404 1405 1405 1406 1407 1407 1408 1408 1409 1409 1411 1412 1413
1389 1386 1384 1382 1381 1381 1380 1379 1379 1379 1378 1379 1379 1379 1380 1380 1379 1379 1379 1376 1373 1370 1370 1371 1371 1373 1375 1376 1377 1378 1375 1374 1376 1377 1378 1380 1381 1382 1383 1384 1384 1384 1385 1387 1389 1389 1390 1391 1391 1392 1392 1392 1392 1393 1393 1394 1394 1395 1396 1397 1397 1398 1398 1399 1399 1400 1401 1401 1402 1402 1403 1404 1406 1407
1383 1381 1378 1376 1376 1375 1374 1372 1373 1373 1372 1373 1373 1372 1373 1373 1372 1373 1373 1371 1370 1368 1366 1365 1365 1367 1369 1370 1371 1373 1372 1369 1371 1372 1374 1375 1376 1377 1378 1379 1380 1380 1380 1381 1384 1385 1385 1386 1386 1386 1387 1387 1387 1387 1387 1388 1388 1389 1390 1390 1391 1391 1392 1392 1393 1394 1394 1395 1395 1396 1397 1398 1400 1401
1377 1375 1373 1371 1370 1369 1368 1366 1366 1366 1366 1366 1367 1367 1366 1367 1366 1366 1366 1365 1365 1364 1361 1361 1361 1361 1362 1364 1366 1368 1368 1366 1366 1367 1369 1371 1372 1373 1374 1374 1375 1376 1376 1376 1378 1380 1380 1380 1381 1381 1381 1381 1381 1381 1382 1382 1383 1383 1384 1385 1385 1386 1386 1387 1388 1388 1389 1390 1390 1391 1392 1393 1394 1395
1372 1370 1368 1366 1365 1364 1362 1361 1360 1360 1360 1360 1360 1360 1360 1360 1360 1359 1359 1359 1359 1358 1356 1357 1357 1356 1355 1358 1360 1362 1363 1362 1361 1362 1365 1366 1367 1368 1369 1370 1370 1371 1371 1372 1373 1374 1375 1375 1375 1375 1375 1375 1375 1376 1376 1377 1377 1378 1379 1380 1380 1381 1382 1382 1383 1384 1384 1385 1385 1386 1387 1388 1389 1390
1367 1365 1363 1361 1360 1359 1357 1356 1355 1354 1354 1354 1353 1353 1353 1353 1353 1352 1352 1353 1352 1351 1351 1352 1352 1351 1350 1351 1354 1356 1357 1358 1357 1358 1360 1361 1362 1363 1364 1365 1365 1365 1365 1366 1368 1369 1369 1369 1370 1370 1369 1369 1370 1371 1371 1372 1372 1373 1374 1375 1375 1376 1377 1377 1378 1379 1380 1380 1381 1381 1382 1383 1384 1385
1361 1359 1358 1356 1355 1354 1353 1351 1350 1349 1349 1348 1347 1346 1347 1347 1346 1346 1346 1346 1346 1346 1346 1346 1346 1347 1345 1345 1347 1350 1352 1352 1351 1352 1355 1357 1358 1359 1359 1360 1361 1361 1361 1361 1363 1364 1365 1364 1364 1364 1364 1364 1365 1365 1366 1366 1367 1368 1369 1370 1371 1371 1372 1373 1373 1374 1375 1375 1376 1377 1377 1378 1379 1380
1356 1354 1352 1350 1349 1348 1347 1346 1345 1344 1344 1343 1341 1340 1341 1341 1340 1340 1340 1340 1340 1340 1339 1339 1340 1341 1340 1338 1340 1342 1344 1346 1346 1348 1351 1353 1354 1356 1356 1355 1357 1358 1357 1357 1358 1359 1360 1360 1360 1360 1359 1359 1360 1360 1361 1362 1362 1363 1364 1365 1366 1366 1367 1368 1369 1369 1370 1371 1371 1372 1372 1373 1374 1375
1350 1348 1345 1343 1341 1340 1339 1338 1337 1335 1335 1335 1334 1333 1334 1335 1334 1334 1334 1335 1334 1334 1333 1333 1334 1335 1333 1332 1334 1335 1338 1342 1343 1344 1347 1348 1349 1352 1352 1351 1352 1353 1353 1354 1354 1354 1355 1355 1355 1355 1355 1354 1355 1355 1356 1357 1357 1359 1360 1360 1361 1361 1362 1363 1364 1364 1365 1366 1366 1367 1368 1368 1369 1370
1342 1340 1338 1336 1334 1332 1330 1329 1328 1327 1326 1326 1326 1325 1326 1326 1327 1327 1328 1328 1328 1328 1328 1326 1327 1328 1327 1328 1329 1331 1334 1337 1339 1340 1342 1344 1345 1346 1346 1346 1348 1349 1349 1350 1351 1351 1351 1351 1350 1350 1350 1350 1351 1351 1352 1352 1353 1354 1355 1355 1356 1357 1357 1358 1359 1359 1360 1361 1362 1362 1363 1364 1365 1366
1336 1333 1331 1329 1326 1324 1322 1321 1319 1318 1317 1317 1317 1317 1317 1317 1318 1319 1319 1320 1320 1321 1322 1321 1321 1322 1322 1323 1324 1326 1329 1332 1334 1336 1338 1339 1340 1341 1341 1342 1344 1345 1346 1346 1347 1347 1347 1347 1346 1345 1345 1346 1347 1347 1347 1348 1349 1349 1350 1350 1351 1352 1353 1354 1354 1355 1356 1357 1357 1358 1359 1360 1361 1362
1331 1328 1325 1322 1318 1316 1314 1312 1311 1309 1308 1308 1308 1308 1308 1308 1308 1309 1310 1311 1313 1315 1316 1315 1314 1315 1317 1318 1319 1322 1325 1328 1330 1331 1332 1333 1334 1335 1336 1337 1340 1342 1343 1342 1343 1343 1343 1344 1343 1341 1342 1343 1343 1343 1343 1344 1345 1345 1345 1346 1347 1348 1349 1350 1351 1351 1352 1353 1354 1354 1355 1356 1358 1359
1325 1322 1318 1314 1311 1308 1306 1304 1302 1302 1301 1300 1300 1300 1301 1300 1300 1300 1300 1302 1304 1307 1309 1309 1308 1310 1312 1314 1315 1318 1321 1323 1324 1326 1327 1329 1330 1330 1332 1333 1336 1338 1339 1339 1340 1339 1338 1340 1340 1338 1338 1340 1339 1339 1339 1340 1341 1341 1341 1343 1344 1345 1346 1347 1348 1348 1349 1349 1350 1350 1351 1353 1354 1355
1319 1316 1311 1307 1302 1300 1298 1296 1295 1294 1293 1293 1293 1293 1293 1293 1293 1293 1293 1294 1296 1298 1300 1302 1303 1305 1307 1309 1311 1314 1316 1317 1319 1322 1324 1325 1327 1328 1329 1330 1331 1333 1334 1335 1336 1334 1335 1337 1337 1335 1336 1337 1336 1336 1336 1336 1337 1337 1339 1340 1341 1342 1343 1343 1344 1344 1345 1345 1346 1347 1348 1349 1350 1350
1312 1308 1303 1298 1294 1291 1289 1288 1288 1288 1287 1287 1286 1285 1285 1285 1285 1285 1285 1287 1289 1291 1293 1296 1298 1300 1302 1305 1308 1310 1311 1312 1316 1319 1320 1321 1323 1325 1326 1326 1327 1328 1329 1330 1331 1331 1331 1333 1333 1333 1334 1334 1334 1334 1334 1334 1334 1335 1336 1337 1338 1338 1339 1339 1340 1340 1341 1342 1343 1344 1345 1345 1346 1346
1302 1297 1292 1289 1285 1282 1281 1280 1280 1281 1282 1282 1281 1280 1280 1279 1279 1279 1280 1282 1283 1285 1288 1290 1292 1295 1298 1301 1303 1304 1306 1308 1311 1314 1314 1316 1318 1320 1321 1321 1322 1323 1324 1325 1327 1328 1327 1329 1331 1331 1331 1331 1331 1331 1332 1332 1332 1333 1333 1334 1334 1335 1335 1336 1336 1337 1339 1340 1341 1342 1342 1343 1343 1343
1293 1287 1283 1280 1277 1274 1273 1273 1273 1274 1275 1276 1275 1275 1275 1274 1274 1274 1275 1277 1277 1280 1283 1285 1287 1290 1293 1296 1298 1300 1301 1303 1305 1308 1309 1311 1314 1316 1317 1318 1319 1320 1320 1320 1323 1324 1324 1326 1328 1328 1329 1329 1328 1328 1330 1330 1330 1331 1331 1332 1332 1332 1332 1332 1333 1335 1336 1337 1338 1339 1339 1340 1340 1340
1284 1279 1275 1272 1270 1268 1267 1267 1267 1268 1269 1269 1269 1270 1270 1269 1269 1270 1271 1272 1273 1275 1278 1280 1283 1285 1288 1291 1293 1295 1298 1299 1300 1302 1305 1308 1310 1311 1313 1315 1316 1317 1316 1317 1320 1321 1321 1324 1326 1326 1327 1327 1326 1326 1327 1328 1328 1329 1330 1330 1330 1329 1330 1330 1331 1332 1333 1334 1334 1335 1336 1336 1337 1337
1276 1272 1269 1267 1265 1264 1262 1262 1262 1262 1263 1264 1264 1264 1265 1264 1264 1266 1267 1268 1270 1272 1274 1277 1280 1282 1284 1287 1289 1291 1294 1296 1297 1299 1302 1304 1306 1308 1310 1311 1312 1314 1314 1314 1316 1318 1320 1322 1323 1323 1325 1325 1325 1325 1325 1326 1327 1328 1328 1328 1328 1328 1329 1329 1330 1330 1331 1332 1332 1332 1332 1332 1333 1333
1273 1269 1266 1263 1261 1260 1259 1258 1257 1257 1257 1258 1259 1260 1260 1260 1261 1262 1264 1265 1267 1269 1271 1274 1277 1279 1281 1284 1286 1287 1290 1293 1294 1295 1298 1300 1302 1304 1306 1307 1309 1311 1313 1313 1313 1316 1318 1320 1320 1321 1322 1323 1323 1323 1323 1324 1326 1326 1326 1326 1327 1327 1328 1328 1329 1330 1330 1330 1330 1329 1329 1330 1330 1330
1271 1267 1264 1260 1258 1256 1255 1253 1253 1252 1252 1253 1255 1255 1255 1255 1257 1259 1261 1263 1264 1266 1268 1271 1274 1276 1277 1280 1282 1284 1287 1290 1291 1293 1295 1297 1299 1301 1303 1305 1307 1309 1311 1311 1312 1314 1316 1318 1318 1319 1320 1321 1321 1322 1322 1323 1324 1324 1325 1325 1326 1327 1327 1327 1328 1329 1329 1328 1327 1327 1327 1327 1327 1327
1269 1265 1261 1258 1255 1253 1252 1250 1248 1248 1249 1250 1250 1251 1251 1251 1253 1256 1258 1260 1261 1263 1266 1268 1271 1273 1274 1277 1280 1282 1285 1287 1288 1290 1292 1295 1297 1299 1300 1302 1305 1308 1309 1309 1310 1313 1314 1316 1317 1318 1319 1320 1320 1321 1321 1322 1322 1323 1324 1325 1325 1326 1326 1326 1327 1327 1327 1326 1325 1325 1325 1325 1325 1325
1266 1261 1258 1255 1252 1250 1249 1247 1246 1246 1246 1247 1247 1247 1247 1248 1249 1252 1254 1255 1257 1260 1263 1266 1268 1270 1273 1275 1277 1280 1283 1284 1285 1287 1290 1293 1295 1297 1299 1301 1303 1305 1307 1308 1310 1311 1313 1314 1315 1317 1317 1318 1319 1320 1320 1321 1321 1322 1323 1324 1325 1325 1326 1326 1326 1326 1326 1325 1324 1324 1323 1323 1323 1323
1263 1258 1255 1252 1250 1248 1246 1245 1245 1245 1244 1244 1243 1242 1241 1242 1243 1246 1248 1251 1254 1257 1260 1263 1266 1269 1271 1273 1276 1278 1281 1282 1283 1285 1288 1291 1294 1296 1297 1299 1301 1303 1305 1307 1309 1310 1311 1313 1314 1315 1316 1317 1318 1318 1319 1319 1320 1321 1322 1323 1324 1325 1325 1325 1325 1325 1325 1324 1323 1323 1322 1322 1321 1321
1259 1256 1252 1250 1248 1246 1245 1244 1244 1243 1243 1242 1240 1237 1235 1236 1239 1241 1245 1248 1252 1255 1258 1261 1264 1267 1270 1272 1274 1277 1279 1280 1281 1284 1286 1289 1291 1294 1295 1297 1299 1301 1303 1305 1307 1309 1310 1312 1313 1314 1315 1316 1316 1317 1317 1318 1319 1320 1322 1322 1323 1324 1324 1324 1324 1324 1323 1323 1323 1322 1321 1320 1320 1319
1256 1253 1250 1248 1246 1245 1244 1244 1244 1243 1242 1240 1237 1235 1234 1236 1239 1241 1244 1248 1251 1254 1257 1260 1263 1266 1268 1270 1272 1274 1276 1278 1280 1282 1285 1287 1289 1292 1294 1296 1298 1300 1302 1304 1306 1307 1309 1310 1312 1313 1314 1314 1315 1316 1316 1317 1318 1320 1321 1321 1322 1322 1323 1323 1323 1323 1322 1322 1322 1321 1320 1320 1319 1318
1254 1251 1248 1246 1245 1245 1245 1245 1244 1243 1241 1239 1238 1236 1236 1238 1241 1243 1246 1249 1252 1255 1257 1259 1262 1263 1265 1267 1269 1271 1274 1276 1279 1281 1283 1286 1288 1290 1293 1295 1297 1299 1301 1303 1304 1306 1308 1309 1310 1311 1312 1313 1314 1315 1315 1317 1318 1319 1320 1321 1321 1322 1322 1322 1322 1322 1321 1321 1321 1321 1320 1319 1319 1318
1253 1250 1247 1245 1245 1245 1246 1245 1244 1243 1241 1240 1239 1239 1239 1241 1243 1245 1248 1250 1252 1255 1257 1258 1260 1262 1263 1265 1267 1269 1271 1275 1277 1279 1282 1284 1286 1289 1292 1294 1296 1298 1300 1301 1303 1305 1306 1308 1309 1310 1311 1312 1313 1314 1315 1316 1318 1319 1319 1320 1321 1321 1321 1321 1321 1321 1321 1321 1321 1321 1320 1319 1318 1318
1253 1250 1247 1246 1246 1246 1245 1245 1245 1244 1243 1242 1241 1241 1242 1242 1244 1246 1248 1250 1252 1254 1256 1257 1259 1260 1261 1263 1264 1266 1269 1272 1275 1278 1280 1282 1284 1287 1290 1292 1295 1297 1299 1301 1302 1304 1305 1307 1308 1309 1310 1311 1312 1313 1314 1315 1317 1318 1319 1320 1320 1321 1321 1321 1321 1321 1321 1321 1321 1320 1320 1319 1318 1318
1253 1250 1248 1248 1247 1246 1245 1245 1245 1245 1244 1244 1244 1244 1243 1244 1245 1247 1249 1250 1252 1253 1255 1256 1257 1259 1260 1261 1263 1264 1267 1270 1273 1276 1279 1281 1283 1286 1289 1292 1294 1296 1298 1300 1301 1302 1304 1306 1307 1308 1310 1311 1312 1313 1313 1315 1316 1317 1318 1319 1320 1320 1321 1321 1321 1321 1320 1320 1320 1320 1320 1319 1319 1318
1253 1251 1250 1249 1248 1247 1246 1246 1245 1245 1244 1245 1245 1245 1245 1246 1247 1248 1249 1251 1252 1253 1254 1255 1256 1257 1259 1260 1262 1263 1265 1268 1272 1275 1277 1280 1282 1285 1288 1291 1293 1295 1297 1298 1299 1300 1302 1304 1306 1308 1309 1310 1311 1312 1313 1314 1315 1316 1317 1318 1319 1320 1321 1321 1321 1321 1321 1321 1321 1320 1320 1320 1319 1319
1255 1253 1252 1251 1250 1249 1248 1248 1247 1246 1246 1246 1246 1247 1247 1248 1248 1249 1250 1251 1252 1253 1254 1255 1255 1257 1258 1259 1261 1263 1264 1267 1270 1273 1276 1278 1281 1284 1287 1289 1292 1294 1295 1296 1298 1299 1301 1303 1305 1307 1308 1309 1311 1312 1312 1313 1314 1315 1316 1318 1319 1320 1321 1321 1321 1321 1321 1321 1321 1321 1321 1320 1320 1319
1258 1256 1255 1254 1253 1252 1252 1251 1250 1249 1249 1249 1249 1248 1249 1249 1249 1250 1250 1251 1252 1253 1253 1254 1255 1256 1257 1259 1260 1261 1263 1266 1269 1272 1275 1278 1280 1283 1286 1288 1290 1292 1293 1295 1296 1298 1300 1302 1304 1305 1307 1309 1311 1311 1312 1313 1314 1315 1316 1317 1318 1319 1320 1321 1321 1322 1322 1322 1322 1321 1321 1321 1320 1319
1261 1260 1258 1257 1256 1255 1254 1253 1252 1252 1251 1251 1251 1250 1250 1250 1250 1251 1251 1251 1252 1253 1253 1254 1255 1256 1257 1258 1259 1261 1263 1266 1268 1271 1274 1277 1279 1282 1285 1287 1289 1291 1292 1293 1295 1297 1299 1301 1302 1304 1306 1308 1310 1311 1311 1312 1313 1314 1316 1317 1318 1319 1320 1321 1321 1322 1322 1322 1322 1322 1321 1321 1320 1320
1265 1263 1261 1260 1258 1257 1256 1255 1254 1253 1253 1252 1252 1251 1251 1251 1251 1251 1252 1252 1252 1252 1253 1254 1255 1255 1256 1258 1259 1261 1263 1266 1268 1271 1273 1276 1278 1281 1284 1286 1288 1290 1291 1292 1294 1296 1298 1299 1301 1303 1306 1308 1309 1310 1311 1312 1313 1314 1315 1317 1318 1319 1320 1320 1321 1321 1322 1322 1322 1322 1322 1321 1320 1320
1267 1265 1263 1262 1260 1259 1258 1257 1256 1255 1254 1254 1253 1252 1252 1251 1251 1251 1252 1252 1252 1253 1253 1254 1254 1255 1256 1258 1259 1262 1264 1266 1268 1270 1273 1275 1277 1280 1283 1285 1287 1289 1290 1291 1293 1295 1297 1298 1300 1303 1305 1307 1308 1310 1311 1312 1313 1314 1315 1317 1318 1319 1320 1320 1320 1321 1322 1322 1322 1322 1322 1321 1320 1320
1269 1267 1265 1263 1262 1261 1259 1258 1257 1256 1255 1254 1253 1252 1252 1251 1251 1251 1251 1252 1252 1253 1253 1254 1254 1255 1257 1258 1260 1262 1264 1266 1268 1270 1272 1274 1277 1280 1283 1285 1286 1288 1289 1291 1293 1294 1296 1298 1300 1302 1305 1306 1308 1310 1311 1312 1313 1314 1315 1316 1318 1319 1320 1320 1321 1321 1322 1322 1322 1322 1321 1321 1320 1320
1271 1269 1267 1265 1264 1262 1261 1260 1258 1257 1256 1255 1254 1253 1252 1251 1251 1251 1251 1252 1253 1253 1253 1254 1255 1256 1257 1259 1261 1263 1265 1267 1268 1270 1272 1275 1277 1279 1282 1284 1285 1287 1289 1291 1293 1294 1295 1297 1299 1302 1304 1306 1308 1310 1311 1311 1312 1313 1315 1316 1318 1319 1319 1320 1321 1322 1322 1322 1322 1322 1321 1321 1320 1320
1273 1271 1269 1267 1265 1263 1262 1261 1259 1258 1257 1256 1255 1253 1252 1251 1251 1250 1251 1252 1253 1253 1254 1254 1255 1257 1258 1260 1262 1264 1265 1267 1269 1271 1273 1275 1277 1279 1281 1283 1285 1287 1289 1290 1292 1294 1296 1298 1300 1302 1304 1306 1308 1309 1310 1311 1312 1314 1315 1316 1318 1319 1319 1321 1322 1322 1323 1323 1322 1322 1321 1321 1321 1320
1275 1273 1271 1269 1267 1265 1263 1261 1260 1259 1258 1257 1255 1254 1253 1252 1251 1251 1251 1252 1253 1253 1254 1255 1256 1258 1259 1261 1263 1265 1266 1269 1271 1272 1274 1276 1278 1279 1281 1283 1285 1287 1288 1290 1292 1294 1296 1298 1300 1302 1304 1306 1308 1309 1310 1311 1313 1314 1315 1316 1318 1319 1320 1321 1322 1322 1323 1323 1323 1323 1322 1322 1321 1321
Wind_Speed
42 41 39 37 35 32 30 29 29 30 30 30 31 31 31 30 29 26 26 30 32 32 30 27 27 31 38 41 40 38 36 33 30 29 29 32 35 37 38 37 36 32 29 29 29 29 28 27 26 26 25 25 24 25 25 25 26 26 27 28 28 28 28 28 28 27 26 26 25 25 25 25 25 25
41 41 42 41 40 39 37 34 33 32 32 32 33 32 32 32 31 29 27 28 31 31 31 29 24 22 28 34 37 38 37 34 31 28 27 30 33 36 38 37 36 34 31 29 29 29 28 28 27 26 25 25 25 26 26 26 27 28 28 28 28 28 28 28 27 27 27 26 25 25 25 25 25 25
41 40 41 42 42 42 40 38 35 34 33 33 33 34 34 34 34 31 29 29 32 33 31 30 26 21 22 27 33 37 38 35 32 28 26 29 31 33 37 36 35 36 34 29 29 29 28 28 27 26 26 26 26 26 26 27 28 28 28 28 28 28 28 28 28 28 27 26 25 25 25 25 26 26
35 35 37 38 39 40 41 40 39 37 35 34 34 35 35 35 35 33 31 32 35 35 31 29 31 28 23 24 29 34 36 35 34 31 27 28 31 33 36 36 35 37 36 31 29 29 29 28 27 26 26 26 27 27 27 27 28 29 29 29 28 28 28 28 27 27 27 26 24 25 25 26 26 27
31 33 38 39 39 40 42 43 44 43 42 39 36 36 36 36 36 34 34 34 34 33 29 29 35 32 25 26 29 31 34 34 33 33 30 27 30 34 35 35 36 37 37 35 33 32 30 29 29 28 28 29 28 29 30 30 29 30 29 29 29 29 28 28 27 27 27 26 24 24 25 26 27 27
30 32 39 42 41 41 41 42 43 44 45 43 39 38 38 38 38 36 36 35 34 33 29 29 34 33 27 30 31 29 33 36 33 32 31 29 30 33 35 34 35 38 38 37 37 36 34 34 35 32 31 32 31 31 32 31 30 30 29 29 29 28 28 28 27 27 27 26 26 25 25 26 26 26
30 32 39 41 40 38 37 39 38 37 39 40 39 40 39 39 40 38 37 37 36 35 31 27 30 32 28 29 31 29 31 36 34 30 28 28 29 32 34 34 34 37 39 38 37 37 37 37 36 33 30 31 31 31 32 33 33 33 32 30 29 28 29 29 30 29 28 28 29 29 29 28 27 28
33 34 37 39 38 36 36 37 36 33 33 32 33 36 37 39 41 40 40 40 39 37 34 29 27 29 29 28 29 29 29 31 33 32 28 26 26 28 31 35 36 36 39 40 37 37 37 37 35 32 30 30 31 33 34 35 36 36 35 34 33 33 33 34 34 34 33 34 34 34 34 33 31 30
34 35 36 37 37 35 36 37 37 37 36 33 31 32 34 35 37 39 40 42 43 41 39 34 27 25 28 28 28 28 28 27 27 30 31 27 26 26 27 31 36 38 40 42 40 39 40 39 36 32 31 31 32 34 35 36 36 37 36 36 35 35 35 35 36 36 36 37 37 37 37 37 35 34
35 36 36 37 36 34 35 36 37 37 37 35 32 33 35 35 35 37 38 39 42 41 40 38 32 26 26 28 28 28 28 27 25 25 28 28 27 27 25 27 33 38 41 43 42 40 41 41 37 33 33 33 34 35 36 37 37 37 36 35 35 35 35 35 35 35 36 37 37 38 38 37 37 36
38 38 37 37 35 32 32 34 36 37 36 34 34 36 38 38 37 38 38 38 39 40 41 39 35 31 28 27 28 26 25 28 30 28 24 23 25 27 28 29 31 35 39 42 42 41 41 41 39 37 37 37 36 36 36 36 36 36 35 34 34 34 34 34 34 35 35 36 36 37 37 37 36 36
40 40 38 36 35 33 32 33 34 34 34 33 35 37 38 40 40 38 36 35 36 39 41 38 35 34 30 27 27 25 23 26 31 31 27 24 24 25 28 29 28 29 33 38 40 39 39 39 39 38 38 37 36 36 35 35 35 34 34 33 33 32 33 33 34 34 35 35 35 36 36 36 35 35
42 42 42 41 41 41 40 39 39 39 39 37 38 39 37 38 41 41 37 35 34 36 38 38 36 34 32 30 27 24 24 26 27 29 32 33 29 24 23 24 25 26 29 32 34 35 36 38 38 37 37 37 36 35 34 33 33 33 32 31 31 31 32 32 33 34 34 35 35 35 35 35 34 34
44 44 45 46 46 47 47 46 46 48 47 45 45 45 42 39 40 42 41 38 36 37 36 36 37 35 34 33 29 24 24 23 22 28 35 35 31 27 25 24 23 23 25 27 30 32 34 35 36 36 36 36 35 33 32 31 31 30 29 29 29 30 30 31 32 32 33 33 34 33 33 33 33 33
44 44 46 47 48 49 51 51 51 52 51 49 47 46 46 44 43 43 43 41 38 37 36 37 40 39 36 34 32 28 23 21 25 33 37 35 31 29 28 26 23 23 27 29 31 33 32 32 34 35 35 35 33 31 29 29 28 27 27 27 27 28 29 29 30 31 31 31 31 31 31 31 31 30
44 45 46 47 49 50 51 52 52 52 51 50 47 44 44 45 45 46 47 47 43 39 36 36 39 41 39 37 38 35 27 26 33 38 38 37 34 31 30 29 26 23 25 29 31 30 29 28 31 33 33 31 29 28 28 27 26 25 25 25 25 25 26 27 27 27 27 28 28 27 28 28 28 28
44 45 46 48 50 51 52 52 52 51 50 49 46 43 42 43 44 45 48 51 50 46 42 39 40 44 43 39 41 41 37 37 40 39 39 40 38 36 35 35 31 26 26 29 28 26 25 24 26 29 30 27 25 26 26 24 23 23 23 23 23 23 22 22 22 23 23 24 25 25 26 27 27 27
44 46 49 51 52 52 53 53 51 50 48 45 40 37 37 39 40 41 44 50 53 52 50 47 45 47 46 42 41 43 42 42 42 40 39 40 39 39 39 37 35 31 29 25 21 22 27 26 26 28 27 24 23 24 23 21 20 21 21 20 19 18 18 19 19 21 22 22 23 25 25 27 27 26
46 49 52 55 55 53 52 51 50 49 47 44 41 40 40 38 37 38 39 42 49 54 54 52 49 48 48 46 44 42 39 39 40 38 36 37 36 36 36 35 34 33 31 26 21 24 30 26 22 22 22 19 18 18 19 19 18 18 17 16 16 17 18 19 20 21 22 22 22 24 25 26 27 27
49 52 53 53 53 51 50 48 46 44 43 42 40 40 41 39 38 41 39 38 46 53 53 50 48 45 45 43 40 37 36 37 37 35 35 37 34 31 31 30 30 31 32 32 30 30 31 26 19 17 16 13 13 14 15 16 16 16 16 14 16 17 17 19 20 20 20 20 20 22 23 23 24 24
53 54 51 49 48 47 45 43 40 37 37 38 38 37 38 37 36 38 37 35 43 51 50 46 43 41 40 37 34 35 35 34 33 33 35 35 33 31 30 29 30 31 32 33 32 30 31 26 18 16 15 13 13 14 13 13 13 14 13 13 15 17 18 19 19 18 17 18 19 20 21 21 21 22
54 53 51 49 48 45 40 36 34 32 31 35 37 36 36 37 35 34 33 31 36 43 44 40 37 37 37 34 33 36 35 31 32 33 33 33 33 32 31 30 29 28 29 32 29 28 31 25 16 14 15 14 15 15 13 12 12 11 11 12 13 14 15 15 15 14 15 17 18 19 19 19 20 21
50 48 46 44 41 39 34 30 29 28 27 30 34 33 33 34 34 33 31 28 29 35 35 32 32 34 34 32 32 35 34 31 32 33 32 31 32 31 32 32 27 22 25 30 27 27 28 22 15 14 13 11 12 14 16 14 12 10 11 11 9 8 8 8 9 11 13 15 18 20 20 20 20 20
44 40 36 33 30 28 28 28 27 26 26 29 31 32 32 33 32 30 29 25 25 29 30 29 31 33 33 31 32 33 31 29 30 31 29 28 30 30 31 32 29 25 23 24 24 26 23 16 14 15 14 11 8 12 18 16 11 9 10 8 6 6 6 6 9 11 14 16 18 19 21 22 21 20
37 36 32 29 27 25 25 26 25 25 27 29 30 31 33 32 29 27 25 23 24 26 27 28 30 31 30 28 27 28 27 25 27 29 27 25 26 28 28 29 31 28 20 16 21 24 18 13 14 15 16 15 11 11 16 16 11 10 11 9 6 6 7 9 11 12 13 15 16 16 18 19 18 18
37 37 33 30 28 26 26 25 21 22 25 27 28 30 32 31 28 25 24 24 25 26 26 29 30 30 29 26 23 23 22 22 26 29 28 24 23 23 24 26 26 23 16 14 20 22 15 13 16 16 15 16 14 12 14 14 11 11 11 10 9 8 9 11 10 9 10 11 11 12 14 15 15 16
36 34 30 28 27 26 26 22 17 17 20 22 25 28 30 29 27 27 27 27 28 28 29 31 31 30 30 28 25 23 21 22 25 27 28 26 21 19 21 22 21 18 13 13 20 23 17 15 17 17 15 16 15 13 12 12 12 11 11 11 10 8 8 7 5 4 4 5 5 6 7 8 9 11
36 31 26 26 27 27 25 20 14 14 17 19 22 24 26 27 29 31 31 31 32 31 31 32 31 30 29 29 29 26 22 22 24 23 24 24 20 16 18 20 21 20 15 14 20 23 20 17 17 15 14 15 16 14 13 13 13 12 12 11 7 4 3 2 2 1 3 5 4 3 4 6 8 10
35 29 25 25 25 24 20 15 13 14 15 18 20 23 26 28 28 29 31 33 33 31 31 32 31 30 31 30 30 27 24 23 23 20 20 23 21 16 15 20 25 24 18 16 18 19 19 19 18 14 13 13 14 14 14 13 12 12 12 11 8 6 4 4 4 1 1 3 4 4 3 5 8 11
31 26 23 22 20 16 12 10 11 13 14 16 18 18 16 17 20 25 30 31 30 29 31 31 30 28 29 29 27 27 27 26 24 19 19 22 23 18 17 23 29 26 20 18 17 17 18 19 17 14 12 11 11 13 13 12 11 11 11 9 9 7 5 5 4 3 2 0 4 6 6 6 6 6
27 24 21 17 13 9 7 7 9 9 10 13 13 5 11 17 18 23 26 25 26 27 27 27 25 21 21 22 21 24 30 29 23 20 21 23 23 21 21 27 29 25 20 18 17 18 19 18 16 14 12 11 10 11 13 12 11 10 9 8 8 7 4 3 3 2 2 2 2 5 5 4 5 5
24 22 17 9 5 4 4 5 7 7 7 8 7 3 14 16 15 18 21 21 23 24 23 22 21 19 19 20 19 22 30 31 23 21 23 25 24 23 24 27 26 21 19 19 19 20 19 17 16 15 13 11 9 10 14 14 11 9 8 7 8 7 4 2 1 2 1 1 2 4 3 2 2 3
20 17 10 6 3 3 4 5 6 6 5 6 6 4 12 18 17 17 17 18 21 22 21 19 18 17 18 19 18 20 29 32 26 22 23 25 25 25 25 25 21 17 18 20 21 21 20 18 16 15 13 11 9 9 13 14 13 11 9 7 7 7 4 3 3 3 3 3 3 3 5 6 5 4
12 10 11 11 8 6 6 8 8 7 6 5 5 4 7 17 21 19 17 18 19 19 17 17 15 13 14 17 18 20 28 33 28 23 22 22 24 26 26 24 19 15 16 17 19 21 22 19 16 15 14 12 9 9 12 15 14 12 9 7 7 7 6 4 4 5 5 5 5 4 6 8 7 6
12 13 15 14 12 12 12 12 11 8 7 5 3 3 2 10 18 20 18 17 15 14 14 15 15 13 14 18 18 19 28 33 30 26 24 22 22 24 25 22 18 15 15 15 15 20 22 19 16 16 14 12 10 8 11 15 15 13 10 7 7 8 8 6 5 5 6 7 7 6 7 7 7 7
17 19 19 17 16 16 15 14 13 11 10 9 5 2 1 5 12 16 16 15 12 12 13 15 14 13 14 18 18 19 26 32 31 30 31 27 23 23 22 19 17 15 14 14 15 19 21 19 18 17 15 13 10 8 9 15 16 14 11 9 7 8 9 7 6 6 7 8 8 8 8 7 5 5
21 22 21 20 18 18 17 16 15 13 11 10 8 5 1 3 7 10 10 10 10 13 14 14 13 13 15 17 16 18 25 31 30 31 33 31 26 23 20 18 17 15 14 15 17 19 20 19 19 18 15 13 10 8 9 14 16 15 13 12 10 9 9 7 5 5 6 6 6 7 7 5 3 3
24 22 21 20 19 17 17 16 16 14 12 9 7 6 4 1 4 6 7 8 10 13 14 13 13 13 14 16 16 18 26 30 28 27 30 30 28 24 20 17 17 15 14 16 19 20 20 19 19 20 16 12 10 9 11 15 16 16 14 12 11 10 9 7 4 4 3 3 3 4 4 4 3 2
25 23 22 21 19 17 17 16 15 14 13 10 7 6 5 3 1 4 7 8 10 13 14 13 13 13 13 14 15 19 28 33 30 28 29 28 26 24 21 17 16 14 14 17 19 20 19 19 20 22 19 13 8 8 12 15 17 17 15 11 10 11 9 7 4 3 2 2 3 3 3 3 3 1
25 24 22 21 20 18 17 16 15 14 12 11 8 7 5 3 1 4 6 7 8 10 12 12 12 12 13 14 15 17 24 30 31 30 29 28 27 27 24 20 16 14 14 17 19 19 20 20 21 22 20 14 9 9 12 14 15 15 14 11 10 9 8 7 5 2 2 2 3 3 1 1 1 2
25 23 22 21 19 18 16 14 13 12 12 11 9 7 5 3 1 3 8 9 7 7 9 10 10 10 12 15 16 16 17 20 22 24 24 25 27 28 26 21 16 14 15 17 19 20 20 20 21 20 18 16 14 13 12 12 12 13 13 13 11 8 7 7 6 3 3 4 3 2 1 1 2 3
25 24 22 20 18 17 15 13 11 11 11 11 10 6 3 3 2 3 8 11 9 7 8 9 9 9 11 14 16 16 16 16 17 18 20 21 22 23 21 18 16 16 15 15 17 18 17 18 20 20 18 17 17 13 10 10 12 12 12 13 12 9 6 6 6 5 5 4 3 1 1 2 2 4
25 24 22 20 18 16 14 12 12 10 10 10 10 7 3 3 2 4 7 9 9 9 10 9 8 9 12 15 16 17 18 18 19 20 22 22 22 23 21 17 17 18 17 15 15 16 15 17 21 22 19 17 15 11 9 10 12 12 13 15 14 11 9 6 7 6 5 4 2 1 2 3 3 3
25 24 23 21 19 17 14 13 12 11 9 10 10 7 5 3 2 6 7 5 6 8 9 8 8 11 14 17 17 17 19 19 19 20 21 20 20 21 20 18 19 21 20 18 17 17 18 20 22 21 18 15 12 10 11 13 13 12 14 16 15 12 10 7 6 6 5 4 3 3 4 5 5 5
24 23 23 21 19 17 15 13 12 11 9 9 9 7 5 4 5 7 7 6 6 7 7 7 11 14 16 16 17 17 19 18 16 17 19 19 18 18 17 17 19 20 19 19 20 19 19 20 20 18 15 13 11 10 12 13 12 11 13 16 16 12 9 7 6 6 6 6 4 3 4 6 6 6
Wind_Direction
273 272 269 267 267 266 265 265 264 263 263 262 262 260 257 257 259 260 259 256 256 258 257 254 252 258 265 269 268 268 269 268 269 269 265 259 257 256 254 252 248 242 239 240 240 241 244 245 246 248 251 253 256 258 260 262 262 261 261 261 260 260 260 259 259 261 262 263 262 259 257 259 262 264
275 272 270 268 267 265 264 265 264 263 263 261 261 260 258 256 256 255 257 258 257 257 257 255 252 251 257 262 265 266 266 266 266 267 265 260 257 256 256 254 249 242 238 238 238 240 242 244 245 247 249 253 256 259 260 261 261 261 261 261 260 259 259 260 260 261 262 261 260 259 260 261 262 264
281 277 274 271 269 267 265 265 263 261 261 260 260 260 259 257 255 254 255 258 258 255 253 254 254 251 248 252 259 264 265 264 262 261 262 260 257 255 256 257 251 244 239 236 237 240 241 241 242 246 251 256 259 261 262 262 262 261 261 261 261 260 259 259 259 259 260 259 258 258 258 259 261 263
283 279 276 273 270 268 266 264 262 260 260 260 260 259 259 258 256 254 254 255 257 254 251 254 256 254 250 248 252 258 262 262 260 258 258 259 257 253 254 256 253 246 242 238 237 238 238 239 242 247 254 258 260 261 262 262 262 261 260 259 260 260 258 258 259 259 260 261 261 261 260 259 260 263
280 277 277 276 274 273 271 269 266 264 262 260 259 257 257 257 255 254 254 255 256 254 250 252 255 254 252 251 249 250 255 258 259 259 257 255 253 253 254 254 252 249 245 241 240 239 237 239 243 249 255 258 259 261 261 261 262 262 261 260 260 260 259 259 260 260 259 260 262 261 260 260 260 263
279 279 281 281 279 278 277 274 271 269 267 264 260 257 255 256 256 254 254 254 255 256 251 248 251 252 250 250 248 245 250 255 256 257 258 254 249 252 255 252 250 251 249 245 244 244 243 245 248 252 257 259 260 260 260 261 261 261 261 259 259 261 261 260 260 259 258 259 259 260 261 261 261 263
284 284 284 283 282 281 279 276 274 272 270 267 263 259 255 254 254 253 253 254 255 257 254 246 246 248 246 247 248 246 248 253 253 250 251 249 246 248 253 252 249 250 252 250 247 247 247 248 251 255 257 258 260 260 259 260 258 257 257 255 255 257 258 257 257 257 258 257 256 257 259 260 262 263
289 288 287 284 283 283 279 275 273 269 267 267 266 262 258 254 253 253 253 253 255 256 256 250 244 243 243 246 248 245 243 247 248 247 244 241 239 242 248 252 250 249 253 254 251 249 249 250 253 256 256 257 259 259 259 258 257 256 255 254 254 255 255 254 254 255 256 255 256 256 258 259 260 262
293 293 292 289 288 287 282 278 274 270 269 268 265 263 260 256 254 252 251 251 251 252 253 253 247 241 240 244 245 241 238 237 239 243 246 242 238 237 240 246 250 249 251 253 253 250 251 253 255 255 255 256 257 258 258 258 257 257 257 257 257 256 256 255 255 255 256 257 258 259 259 260 260 261
297 297 296 294 292 288 283 280 277 276 275 270 265 261 258 258 258 254 250 250 249 248 250 251 249 242 238 240 240 237 234 232 229 236 244 244 240 238 235 238 247 251 251 252 253 253 254 256 256 255 255 256 258 258 258 258 258 258 258 258 257 256 256 255 255 255 256 257 258 259 260 260 261 261
299 297 295 294 291 284 280 280 280 280 280 275 269 262 256 256 260 259 256 252 248 247 248 248 247 246 240 235 235 232 229 231 233 234 236 237 238 241 239 237 242 249 252 254 255 255 257 258 258 258 259 259 259 258 258 257 257 257 258 257 256 255 255 255 256 256 256 256 257 258 260 260 260 261
297 294 291 287 283 278 275 275 274 273 275 275 273 269 262 255 256 261 263 260 254 250 248 245 246 246 238 231 230 226 222 227 231 231 231 234 237 240 242 241 239 241 249 255 258 258 258 258 259 260 261 259 258 257 256 257 257 256 257 256 256 255 255 255 255 255 256 256 256 257 258 258 259 260
295 293 290 286 283 281 278 275 271 270 271 269 268 270 268 262 258 258 260 261 260 256 250 244 243 242 234 228 224 217 216 221 223 228 236 241 239 237 240 242 240 238 243 252 258 259 259 259 261 261 261 260 259 257 256 256 256 256 256 256 257 255 254 253 253 254 255 255 256 256 257 257 258 258
295 293 291 288 287 285 283 280 277 276 275 272 269 268 266 263 260 257 256 258 259 259 256 246 239 237 235 228 220 215 218 218 219 230 239 242 240 237 238 240 239 237 239 245 253 258 260 262 262 261 260 260 259 258 257 256 255 256 256 255 254 253 253 253 252 253 254 254 255 256 256 256 256 257
295 292 290 288 287 285 284 282 281 280 278 275 272 268 262 259 257 255 253 253 254 256 259 253 242 237 235 229 225 224 219 214 226 238 242 241 239 236 235 236 237 239 244 249 255 258 260 260 261 261 259 259 259 259 258 258 257 257 255 253 251 251 251 252 252 253 253 254 255 255 255 256 256 256
294 293 291 289 288 286 285 284 282 281 279 277 273 266 260 257 255 252 249 248 250 251 255 257 249 240 236 233 233 229 220 222 237 242 242 241 239 235 235 237 238 240 248 255 258 259 257 256 258 261 261 259 259 259 257 257 256 255 253 252 250 249 249 249 250 251 253 253 255 255 255 256 256 257
295 295 294 292 290 288 286 284 282 279 277 276 274 268 261 257 255 253 248 245 244 246 251 255 253 246 241 237 236 235 234 238 242 241 241 241 239 237 239 243 244 243 248 255 256 253 252 252 256 261 262 260 258 257 255 254 253 251 250 249 248 247 247 249 251 252 254 255 255 255 255 255 256 256
296 297 297 295 293 290 287 283 280 277 274 270 265 261 258 256 255 253 250 245 240 240 245 249 251 251 247 241 241 245 246 244 241 240 242 242 241 242 245 249 250 248 248 250 249 249 253 255 256 258 260 260 258 255 253 251 248 247 246 245 246 247 248 250 252 253 254 254 254 254 255 254 254 255
296 297 298 296 294 291 286 282 278 276 273 268 263 262 261 259 256 252 250 246 239 237 238 240 245 251 248 244 249 253 249 242 240 242 244 245 246 248 251 253 253 251 249 246 244 251 257 255 252 255 257 256 254 252 252 249 244 243 243 241 242 244 247 250 252 253 253 254 257 258 257 256 254 253
298 300 300 298 294 289 284 282 278 274 270 265 261 261 263 263 258 252 249 246 239 235 235 239 244 247 245 245 251 251 244 239 240 242 244 244 245 247 248 249 249 249 249 247 246 250 252 247 242 248 251 248 247 249 248 244 240 240 241 243 244 244 246 251 252 254 257 259 261 261 259 257 256 255
304 307 306 302 296 289 282 279 276 271 266 262 257 254 256 259 256 251 250 247 238 232 234 241 245 243 242 244 244 242 239 237 236 236 239 239 237 237 237 238 242 246 247 247 244 242 243 242 239 242 244 242 244 242 233 231 237 242 245 251 256 255 254 254 252 255 261 261 260 260 259 258 258 258
309 308 306 302 295 289 282 277 274 268 263 261 258 254 253 253 252 249 249 247 237 230 232 239 239 237 240 239 233 233 235 234 232 232 234 235 234 232 231 235 241 242 245 248 243 234 235 236 232 237 243 244 244 235 220 221 230 236 245 257 267 267 258 251 246 248 255 256 253 252 252 252 253 254
313 308 304 300 292 285 282 281 277 268 260 257 256 253 249 249 249 248 248 246 238 230 230 232 230 231 234 230 224 227 231 232 234 234 232 233 234 234 234 236 235 232 241 248 239 227 229 229 222 228 235 242 242 225 213 218 224 232 249 261 271 275 262 249 249 251 255 259 255 249 247 246 248 252
311 306 304 301 293 287 285 284 278 268 259 255 254 250 246 245 247 248 247 243 234 228 226 227 227 227 226 222 220 224 226 226 231 236 234 232 234 237 236 234 232 230 241 248 232 219 219 218 216 221 220 220 225 212 209 215 217 226 242 250 255 265 267 268 271 269 267 267 261 253 248 247 249 254
310 308 307 303 298 294 290 286 278 267 258 252 250 246 241 241 243 243 242 240 235 230 226 225 225 221 216 211 211 218 220 215 219 230 234 230 234 237 233 231 232 231 235 241 225 211 205 205 211 217 216 212 210 204 207 210 212 224 238 249 260 264 262 262 265 264 263 262 261 257 252 249 251 253
313 311 309 303 298 295 294 291 281 265 254 248 244 240 238 239 238 235 237 241 241 236 229 224 220 212 207 203 200 206 210 206 212 224 229 230 235 235 227 227 229 225 224 230 215 201 196 206 211 212 214 213 211 209 204 205 214 226 235 250 258 254 254 259 258 254 259 263 260 256 253 251 253 255
313 309 302 297 295 295 298 297 281 254 244 240 236 233 234 235 234 236 238 238 236 233 226 219 213 207 206 207 204 202 201 203 213 221 223 226 231 224 216 219 216 208 214 221 204 193 195 208 211 211 209 206 208 209 203 203 213 219 228 242 245 240 248 256 241 234 287 306 286 264 258 255 258 260
314 309 298 293 294 296 297 293 270 247 245 243 239 238 241 242 245 247 242 230 226 224 215 208 205 205 206 207 209 208 202 203 216 223 219 220 222 217 214 210 198 191 197 201 198 198 201 206 209 211 205 201 202 202 199 203 207 210 220 225 212 200 226 224 185 200 356 360 342 304 275 259 258 263
316 311 303 298 297 296 293 282 263 256 256 253 256 263 262 255 249 243 230 217 214 213 206 203 203 205 206 208 211 210 204 205 217 221 213 211 212 215 215 200 187 184 185 184 193 205 208 208 209 208 203 199 198 195 193 192 191 199 209 198 166 151 160 152 150 162 46 38 29 25 346 280 267 265
318 313 307 305 303 298 286 268 261 264 263 268 280 281 257 225 211 208 207 207 208 207 205 205 205 205 209 211 211 209 208 210 216 213 204 203 205 206 200 188 185 187 187 183 191 205 209 208 209 209 202 195 193 193 188 175 170 187 198 184 160 157 164 171 183 194 176 21 1 12 6 346 330 295
324 320 314 307 299 287 268 257 266 278 283 297 311 287 191 183 187 194 198 198 199 198 200 203 204 204 209 209 207 209 212 213 214 212 204 200 201 200 192 186 187 192 194 192 196 204 208 210 212 211 204 195 193 192 184 169 160 168 173 165 161 162 167 190 203 196 188 215 331 352 349 346 358 4
326 324 321 317 293 260 252 265 289 308 311 324 352 149 182 184 180 183 186 186 188 193 197 201 203 206 210 209 205 208 210 211 213 214 205 199 202 202 193 189 192 198 201 200 200 204 209 214 214 212 206 200 197 191 183 176 167 162 161 163 166 163 157 151 113 85 108 101 24 10 15 19 15 30
329 329 345 14 3 288 282 305 329 346 350 357 27 121 185 189 177 172 177 182 188 196 201 206 213 220 221 214 204 201 204 205 208 209 201 198 204 203 195 192 195 197 202 205 204 206 211 215 215 213 208 203 200 196 191 183 171 164 165 162 151 139 120 98 92 81 80 77 51 37 58 64 61 57
347 6 33 35 17 354 345 351 358 5 9 13 37 79 181 197 191 182 179 185 193 200 205 213 224 228 214 200 191 193 200 201 200 200 196 194 200 201 197 196 196 196 200 205 208 211 212 214 216 215 209 205 204 206 200 189 173 165 167 168 155 137 113 93 85 73 76 87 80 68 72 72 72 74
29 45 50 44 35 30 23 16 13 10 11 17 39 70 158 201 199 195 194 198 202 208 213 222 231 224 202 191 187 190 197 199 198 196 193 190 193 197 196 194 195 198 200 201 208 213 212 213 216 215 210 208 210 207 198 188 179 174 176 176 163 144 125 106 87 75 88 109 109 94 81 77 80 84
48 51 51 47 43 42 39 33 29 24 23 26 32 52 139 187 199 207 212 214 216 223 229 231 228 213 195 191 187 185 191 195 196 196 195 194 195 197 196 195 199 202 201 202 210 213 210 211 215 212 208 209 210 203 191 187 185 183 177 163 149 140 131 117 96 84 92 108 110 102 92 85 84 87
51 52 51 50 49 49 49 47 44 40 36 34 35 35 46 196 198 206 216 222 228 236 239 231 215 198 190 190 187 182 186 191 194 195 195 196 199 199 196 198 202 205 206 210 213 212 210 212 212 208 204 204 200 190 186 188 188 185 174 157 146 143 137 127 114 96 88 94 102 103 100 92 79 66
43 46 49 50 51 50 49 48 47 46 43 40 43 46 35 311 213 205 211 221 231 236 235 221 201 190 188 186 183 184 189 192 195 195 194 196 200 201 198 199 202 205 212 215 214 213 211 210 209 205 200 197 193 186 184 184 183 183 179 165 152 148 140 129 129 122 97 82 89 98 102 99 89 64
35 36 39 42 44 46 46 45 44 43 39 32 28 35 38 36 201 213 218 225 235 238 232 216 203 200 197 193 191 193 195 196 198 198 197 198 200 201 200 203 204 205 212 216 214 211 207 203 204 203 198 193 189 184 185 185 183 184 186 175 159 156 150 136 132 140 128 95 80 84 90 88 83 50
30 30 31 33 35 38 41 43 42 40 35 25 13 5 8 24 118 205 221 228 237 239 230 218 213 212 206 201 199 197 197 200 205 207 206 207 209 208 207 209 206 201 205 211 212 206 199 197 202 200 194 190 189 185 184 183 181 183 187 180 169 170 166 155 151 158 153 129 99 90 101 85 53 339
25 26 25 26 29 30 32 36 37 35 29 20 10 359 346 348 53 203 220 224 230 240 236 227 221 215 204 198 194 188 184 192 201 205 206 210 212 212 209 208 202 193 194 202 203 198 196 199 200 192 183 183 184 178 171 169 169 175 181 178 177 185 181 168 165 158 137 133 115 81 26 359 21 10
22 22 20 21 22 22 23 24 24 27 25 15 7 4 341 316 313 205 214 221 228 240 239 231 226 216 200 189 183 180 177 177 180 184 188 192 196 197 196 194 191 188 188 193 194 193 196 197 189 174 166 171 176 171 161 163 168 172 174 171 174 187 190 165 146 128 121 129 136 104 350 357 10 6
22 20 19 17 16 15 15 13 11 16 18 7 2 12 5 317 294 165 188 218 234 242 240 231 221 205 187 178 178 182 183 181 178 178 180 182 185 185 185 186 187 187 188 190 187 181 177 174 169 161 158 165 172 171 169 171 170 168 165 164 170 187 196 165 130 120 117 114 123 129 60 45 43 31
22 19 18 17 15 11 8 6 5 8 10 2 2 15 21 5 99 143 158 191 221 233 238 224 193 178 174 174 177 179 178 177 178 179 180 183 185 186 187 189 187 185 188 191 184 170 158 156 158 159 160 166 171 172 171 169 165 162 163 163 170 188 196 169 136 135 131 103 90 93 74 57 56 67
22 20 17 16 15 11 7 4 3 4 5 2 2 11 24 41 95 139 160 168 170 194 217 199 171 169 173 174 174 174 172 173 176 178 180 183 186 186 186 185 182 184 189 190 181 168 159 158 161 163 165 166 166 167 170 169 165 166 168 167 171 180 179 159 149 153 135 109 93 93 80 62 58 70